When you browse on this site, cookies collect data to enhance your experience and personalize the content and advertising you see.
Visit our Privacy Policy to learn more. By continuing to use the site, you agree to this use of cookies and data.
  • In Hungary
  • List of Countries
  • For 7 days
  • Water Temperature
  • Weather Map
  • News
  • Weather Widgets
  • user-avatar
    Login

    Hourly Weather Wroblik

    Today, 21 September, Saturday

    Time Temperature Precipitation Wind Pressure Humidity
    00:00 +10°C° 0.1 mm 4 mps 758 mmHg 88%
    01:00 +11°C° 0.1 mm 4 mps 758 mmHg 91%
    02:00 +11°C° 0 mm 4 mps 757 mmHg 92%
    03:00 +10°C° 0 mm 5 mps 757 mmHg 93%
    04:00 +10°C° 0 mm 5 mps 757 mmHg 94%
    05:00 +12°C° 0 mm 5 mps 757 mmHg 93%
    06:00 +12°C° 0 mm 5 mps 757 mmHg 92%
    07:00 +13°C° 0 mm 5 mps 757 mmHg 91%
    08:00 +13°C° 0 mm 5 mps 757 mmHg 88%
    09:00 +14°C° 0 mm 5 mps 757 mmHg 86%
    10:00 +14°C° 0 mm 5 mps 757 mmHg 84%
    11:00 +14°C° 0 mm 5 mps 757 mmHg 82%
    12:00 +15°C° 0 mm 5 mps 757 mmHg 80%
    13:00 +15°C° 0 mm 5 mps 757 mmHg 78%
    14:00 +15°C° 0 mm 5 mps 757 mmHg 78%
    15:00 +15°C° 0 mm 4 mps 757 mmHg 77%
    16:00 +15°C° 0 mm 4 mps 757 mmHg 77%
    17:00 +14°C° 0 mm 4 mps 757 mmHg 82%
    18:00 +13°C° 0 mm 3 mps 757 mmHg 87%
    19:00 +13°C° 0 mm 2 mps 757 mmHg 92%
    20:00 +12°C° 0 mm 2 mps 757 mmHg 93%
    21:00 +12°C° 0 mm 2 mps 757 mmHg 95%
    22:00 +10°C° 0 mm 3 mps 756 mmHg 96%
    23:00 +10°C° 0 mm 3 mps 756 mmHg 96%

    Tomorrow, 22 September, Sunday

    Time Temperature Precipitation Wind Pressure Humidity
    00:00 +10°C° 0 mm 3 mps 756 mmHg 96%
    01:00 +10°C° 0 mm 3 mps 756 mmHg 97%
    02:00 +9°C° 0 mm 3 mps 756 mmHg 97%
    03:00 +9°C° 0 mm 3 mps 756 mmHg 97%
    04:00 +9°C° 0 mm 3 mps 755 mmHg 97%
    05:00 +9°C° 0 mm 3 mps 755 mmHg 95%
    06:00 +10°C° 0 mm 3 mps 755 mmHg 93%
    07:00 +11°C° 0 mm 4 mps 755 mmHg 91%
    08:00 +13°C° 0 mm 4 mps 755 mmHg 84%
    09:00 +14°C° 0 mm 3 mps 755 mmHg 78%
    10:00 +17°C° 0 mm 3 mps 755 mmHg 71%
    11:00 +18°C° 0 mm 3 mps 755 mmHg 68%
    12:00 +19°C° 0 mm 3 mps 755 mmHg 65%
    13:00 +20°C° 0 mm 3 mps 755 mmHg 61%
    14:00 +20°C° 0 mm 3 mps 754 mmHg 65%
    15:00 +19°C° 0 mm 3 mps 754 mmHg 68%
    16:00 +18°C° 0 mm 3 mps 754 mmHg 72%
    17:00 +17°C° 0 mm 2 mps 754 mmHg 79%
    18:00 +15°C° 0 mm 2 mps 754 mmHg 86%
    19:00 +13°C° 0 mm 2 mps 754 mmHg 94%
    20:00 +13°C° 0 mm 2 mps 755 mmHg 93%
    21:00 +12°C° 0 mm 3 mps 755 mmHg 93%
    22:00 +11°C° 0 mm 3 mps 755 mmHg 93%
    23:00 +11°C° 0 mm 3 mps 755 mmHg 88%

    Day after tomorrow, 23 September, Monday

    Time Temperature Precipitation Wind Pressure Humidity
    00:00 +10°C° 0 mm 4 mps 756 mmHg 83%
    01:00 +8°C° 0 mm 4 mps 756 mmHg 77%
    02:00 +8°C° 0 mm 4 mps 756 mmHg 76%
    03:00 +8°C° 0 mm 4 mps 756 mmHg 74%
    04:00 +7°C° 0 mm 4 mps 756 mmHg 72%
    05:00 +8°C° 0 mm 4 mps 756 mmHg 72%
    06:00 +8°C° 0 mm 4 mps 755 mmHg 71%
    07:00 +8°C° 0 mm 4 mps 755 mmHg 70%
    08:00 +11°C° 0 mm 4 mps 756 mmHg 68%
    09:00 +12°C° 0 mm 4 mps 756 mmHg 66%
    10:00 +14°C° 0 mm 4 mps 756 mmHg 64%
    11:00 +15°C° 0 mm 4 mps 755 mmHg 63%
    12:00 +15°C° 0 mm 4 mps 755 mmHg 62%
    13:00 +17°C° 0 mm 4 mps 755 mmHg 61%
    14:00 +17°C° 0 mm 4 mps 754 mmHg 62%
    15:00 +15°C° 0 mm 4 mps 754 mmHg 63%
    16:00 +15°C° 0 mm 4 mps 754 mmHg 64%
    17:00 +14°C° 0 mm 4 mps 754 mmHg 69%
    18:00 +12°C° 0 mm 4 mps 754 mmHg 74%
    19:00 +10°C° 0 mm 3 mps 754 mmHg 79%
    20:00 +10°C° 0 mm 3 mps 754 mmHg 81%
    21:00 +9°C° 0 mm 3 mps 754 mmHg 82%
    22:00 +8°C° 0 mm 3 mps 754 mmHg 83%
    23:00 +8°C° 0 mm 3 mps 754 mmHg 84%

    24 September, Tuesday

    Time Temperature Precipitation Wind Pressure Humidity
    00:00 +8°C° 0 mm 3 mps 754 mmHg 85%
    01:00 +7°C° 0 mm 3 mps 754 mmHg 85%
    02:00 +7°C° 0 mm 3 mps 754 mmHg 85%
    03:00 +7°C° 0 mm 3 mps 753 mmHg 85%
    04:00 +7°C° 0 mm 3 mps 753 mmHg 84%
    05:00 +7°C° 0 mm 3 mps 753 mmHg 81%
    06:00 +7°C° 0 mm 3 mps 753 mmHg 78%
    07:00 +8°C° 0 mm 3 mps 753 mmHg 75%
    08:00 +10°C° 0 mm 3 mps 753 mmHg 71%
    09:00 +11°C° 0 mm 3 mps 753 mmHg 66%
    10:00 +13°C° 0 mm 3 mps 754 mmHg 62%
    11:00 +14°C° 0 mm 3 mps 753 mmHg 60%
    12:00 +16°C° 0 mm 3 mps 753 mmHg 59%
    13:00 +17°C° 0 mm 3 mps 753 mmHg 58%
    14:00 +17°C° 0 mm 3 mps 752 mmHg 60%
    15:00 +17°C° 0 mm 3 mps 752 mmHg 62%
    16:00 +17°C° 0 mm 2 mps 752 mmHg 63%
    17:00 +16°C° 0 mm 3 mps 752 mmHg 66%
    18:00 +13°C° 0 mm 3 mps 752 mmHg 69%
    19:00 +12°C° 0 mm 3 mps 752 mmHg 71%
    20:00 +12°C° 0 mm 3 mps 752 mmHg 71%
    21:00 +12°C° 0 mm 3 mps 752 mmHg 71%
    22:00 +11°C° 0 mm 3 mps 752 mmHg 72%
    23:00 +11°C° 0 mm 3 mps 752 mmHg 72%

    25 September, Wednesday

    Time Temperature Precipitation Wind Pressure Humidity
    00:00 +11°C° 0 mm 3 mps 752 mmHg 73%
    01:00 +12°C° 0 mm 2 mps 751 mmHg 73%
    02:00 +12°C° 0 mm 2 mps 751 mmHg 74%
    03:00 +12°C° 0 mm 2 mps 751 mmHg 75%
    04:00 +12°C° 0 mm 2 mps 751 mmHg 75%
    05:00 +11°C° 0 mm 3 mps 751 mmHg 76%
    06:00 +11°C° 0 mm 3 mps 751 mmHg 76%
    07:00 +11°C° 0 mm 3 mps 750 mmHg 77%
    08:00 +11°C° 0.1 mm 3 mps 751 mmHg 78%
    09:00 +11°C° 0.1 mm 3 mps 751 mmHg 80%
    10:00 +11°C° 0.1 mm 3 mps 751 mmHg 81%
    11:00 +11°C° 0.1 mm 3 mps 751 mmHg 83%
    12:00 +11°C° 0.1 mm 3 mps 750 mmHg 85%
    13:00 +11°C° 0.1 mm 3 mps 750 mmHg 87%
    14:00 +11°C° 0 mm 3 mps 750 mmHg 87%
    15:00 +11°C° 0 mm 3 mps 750 mmHg 88%
    16:00 +11°C° 0 mm 3 mps 749 mmHg 88%
    17:00 +11°C° 0 mm 4 mps 749 mmHg 90%
    18:00 +10°C° 0 mm 4 mps 749 mmHg 92%
    19:00 +10°C° 0 mm 4 mps 749 mmHg 93%
    20:00 +10°C° 0.1 mm 4 mps 749 mmHg 93%
    21:00 +10°C° 0.1 mm 4 mps 749 mmHg 93%
    22:00 +10°C° 0.1 mm 4 mps 749 mmHg 92%
    23:00 +10°C° 0.4 mm 4 mps 749 mmHg 93%

    26 September, Thursday

    Time Temperature Precipitation Wind Pressure Humidity
    00:00 +10°C° 0.4 mm 4 mps 749 mmHg 94%
    01:00 +10°C° 0.4 mm 3 mps 749 mmHg 94%
    02:00 +10°C° 0.4 mm 4 mps 749 mmHg 95%
    03:00 +10°C° 0.4 mm 4 mps 749 mmHg 95%
    04:00 +10°C° 0.4 mm 4 mps 749 mmHg 95%
    05:00 +8°C° 0.8 mm 4 mps 749 mmHg 95%
    06:00 +8°C° 0.8 mm 4 mps 749 mmHg 95%
    07:00 +8°C° 0.8 mm 4 mps 749 mmHg 95%
    08:00 +8°C° 0.7 mm 4 mps 749 mmHg 95%
    09:00 +8°C° 0.7 mm 4 mps 750 mmHg 95%
    10:00 +8°C° 0.7 mm 4 mps 750 mmHg 95%
    11:00 +8°C° 0.4 mm 4 mps 750 mmHg 95%
    12:00 +8°C° 0.4 mm 4 mps 750 mmHg 94%
    13:00 +8°C° 0.4 mm 4 mps 750 mmHg 94%
    14:00 +8°C° 0 mm 4 mps 750 mmHg 94%
    15:00 +8°C° 0 mm 4 mps 750 mmHg 94%
    16:00 +8°C° 0 mm 4 mps 750 mmHg 93%
    17:00 +8°C° 0 mm 4 mps 750 mmHg 94%
    18:00 +8°C° 0 mm 4 mps 750 mmHg 94%
    19:00 +8°C° 0 mm 4 mps 751 mmHg 94%
    20:00 +8°C° 0 mm 4 mps 751 mmHg 95%
    21:00 +9°C° 0 mm 3 mps 751 mmHg 95%
    22:00 +9°C° 0 mm 3 mps 751 mmHg 95%
    23:00 +8°C° 0.3 mm 4 mps 751 mmHg 95%
    Show more